JH5EWP-13 Weather Reports


time (UTC)temp
C
wind
direction
speed
KPH
gust
KPH
rain 1hr
cm
rain 24hr
cm
rain mn
cm
humidity
%
barometer
mb
20260507092123 22 223 3.2 6.4 0.00 0.00 0.00 62 1000.8
20260507090622 22 247 4.8 8.0 0.00 0.00 0.00 62 1001.0
20260507085123 22 247 4.8 9.7 0.00 0.00 0.00 58 1000.9
20260507083623 22 256 4.8 9.7 0.00 0.00 0.00 57 1000.9
20260507082123 22 254 4.8 9.7 0.00 0.00 0.00 55 1001.0
20260507080623 23 249 8.0 11.3 0.00 0.00 0.00 54 1000.9
20260507075124 23 279 6.4 11.3 0.00 0.00 0.00 53 1001.0
20260507073624 24 263 6.4 11.3 0.00 0.00 0.00 52 1000.9
20260507072123 25 228 4.8 8.0 0.00 0.00 0.00 50 1001.0
20260507070623 24 260 6.4 12.9 0.00 0.00 0.00 51 1000.9
20260507065123 25 235 4.8 12.9 0.00 0.00 0.00 50 1001.0
20260507063623 25 260 6.4 12.9 0.00 0.00 0.00 49 1001.0
20260507062123 25 267 6.4 11.3 0.00 0.00 0.00 49 1001.0
20260507060623 25 272 4.8 9.7 0.00 0.00 0.00 50 1001.3
20260507055122 24 276 8.0 11.3 0.00 0.00 0.00 51 1001.5
20260507053622 25 269 6.4 9.7 0.00 0.00 0.00 50 1001.7
20260507053244 25 253 6.4 9.7 0.00 0.00 0.00 50 1001.6
20260507051744 24 266 6.4 11.3 0.00 0.00 0.00 50 1002.2
20260507050243 25 294 6.4 11.3 0.00 0.00 0.00 50 1002.2
20260507044743 24 269 6.4 9.7 0.00 0.00 0.00 50 1002.4
20260507043243 25 285 6.4 12.9 0.00 0.00 0.00 50 1002.5
20260507041743 26 257 3.2 8.0 0.00 0.00 0.00 49 1002.7
20260507040243 25 261 4.8 9.7 0.00 0.00 0.00 50 1002.9
20260507034743 24 278 8.0 12.9 0.00 0.00 0.00 50 1003.2
20260507033243 25 272 3.2 9.7 0.00 0.00 0.00 50 1003.5
20260507031743 24 295 8.0 11.3 0.00 0.00 0.00 48 1003.5
20260507030244 25 300 6.4 11.3 0.00 0.00 0.00 47 1003.8
20260507024744 25 297 6.4 14.5 0.00 0.00 0.00 47 1004.0
20260507023244 25 291 6.4 9.7 0.00 0.00 0.00 47 1004.2
20260507021744 25 292 6.4 9.7 0.00 0.00 0.00 49 1004.4
20260507020244 24 290 6.4 11.3 0.00 0.00 0.00 50 1004.5
20260507014744 24 294 4.8 9.7 0.00 0.00 0.00 49 1004.3
20260507013244 23 287 4.8 9.7 0.00 0.00 0.00 49 1004.7
20260507011744 23 270 6.4 14.5 0.00 0.00 0.00 49 1004.8
20260507010243 23 282 4.8 8.0 0.00 0.00 0.00 46 1004.8
20260507004744 23 287 4.8 8.0 0.00 0.00 0.00 47 1005.0
20260507003244 23 301 3.2 9.7 0.00 0.00 0.00 49 1005.1
20260507001744 22 294 3.2 8.0 0.00 0.00 0.00 48 1005.2
20260507000245 22 279 3.2 4.8 0.00 0.00 0.00 52 1005.5
20260506234744 21 270 1.6 4.8 0.00 0.00 0.00 52 1005.6
20260506233244 20 270 1.6 4.8 0.00 0.00 0.00 57 1005.7
20260506231744 19 270 1.6 4.8 0.00 0.00 0.00 57 1005.9
20260506230244 19 343 1.6 4.8 0.00 0.00 0.00 60 1006.0
20260506224744 18 354 0.0 3.2 0.00 0.00 0.00 63 1006.1
20260506223245 17 20 0.0 3.2 0.00 0.00 0.00 64 1006.2
20260506221744 16 128 0.0 3.2 0.00 0.00 0.00 71 1006.3
20260506220244 16 116 0.0 3.2 0.00 0.00 0.00 71 1006.2
20260506214744 16 173 0.0 1.6 0.00 0.00 0.00 71 1006.1
20260506213243 15 244 1.6 4.8 0.00 0.00 0.00 71 1006.1
20260506211743 15 123 0.0 1.6 0.00 0.00 0.00 71 1006.1
20260506210243 16 132 0.0 1.6 0.00 0.00 0.00 72 1005.5
20260506204744 15 133 0.0 4.8 0.00 0.00 0.00 73 1005.5
20260506203243 14 122 0.0 4.8 0.00 0.00 0.00 74 1005.4
20260506201745 13 97 1.6 4.8 0.00 0.00 0.00 74 1005.6
20260506200243 13 100 1.6 4.8 0.00 0.00 0.00 74 1005.7
20260506194744 13 94 4.8 9.7 0.00 0.00 0.00 74 1005.9
20260506193243 14 100 4.8 9.7 0.00 0.00 0.00 74 1006.0
20260506191744 13 114 3.2 6.4 0.00 0.00 0.00 74 1006.2
20260506190244 13 111 3.2 6.4 0.00 0.00 0.00 74 1006.2
20260506184743 13 94 1.6 4.8 0.00 0.00 0.00 73 1006.1
20260506183243 13 90 0.0 4.8 0.00 0.00 0.00 72 1006.1
20260506181745 13 120 0.0 3.2 0.00 0.00 0.00 72 1006.2
20260506180245 14 109 0.0 4.8 0.00 0.00 0.00 72 1006.0
20260506174743 14 90 1.6 4.8 0.00 0.00 0.00 72 1006.0
20260506173243 14 104 3.2 6.4 0.00 0.00 0.00 71 1006.1
20260506171743 14 113 3.2 4.8 0.00 0.00 0.00 71 1006.1
20260506170243 15 109 3.2 4.8 0.00 0.00 0.00 71 1006.2
20260506164743 14 107 1.6 4.8 0.00 0.00 0.00 71 1006.2
20260506163243 15 100 3.2 8.0 0.00 0.00 0.00 71 1006.4
20260506161743 15 98 3.2 8.0 0.00 0.00 0.00 71 1006.5
20260506160243 15 91 1.6 6.4 0.00 0.00 0.00 70 1006.8
20260506154744 15 109 3.2 9.7 0.00 0.00 0.00 70 1006.8
20260506153244 15 96 3.2 8.0 0.00 0.00 0.00 68 1007.1
20260506151744 15 96 4.8 8.0 0.00 0.00 0.00 66 1007.1
20260506150244 15 108 1.6 4.8 0.00 0.00 0.00 66 1007.4
20260506144744 15 99 3.2 6.4 0.00 0.00 0.00 65 1007.7
20260506143243 16 105 3.2 4.8 0.00 0.00 0.00 64 1007.7
20260506141743 16 117 1.6 4.8 0.00 0.00 0.00 63 1007.6
20260506140244 16 98 3.2 4.8 0.00 0.00 0.00 63 1007.5
20260506134744 16 108 1.6 4.8 0.00 0.00 0.00 62 1007.8
20260506133244 16 120 1.6 4.8 0.00 0.00 0.00 61 1007.7
20260506131744 16 110 3.2 4.8 0.00 0.00 0.00 61 1007.6
20260506130243 17 107 3.2 6.4 0.00 0.00 0.00 61 1007.2
20260506124743 17 135 0.0 1.6 0.00 0.00 0.00 59 1007.3
20260506123243 17 94 0.0 3.2 0.00 0.00 0.00 57 1007.2
20260506121744 17 110 1.6 4.8 0.00 0.00 0.00 53 1007.1
20260506120242 17 106 1.6 3.2 0.00 0.00 0.00 52 1006.9
20260506114847 18 91 1.6 4.8 0.00 0.00 0.00 52 1006.8
20260506113347 18 90 1.6 4.8 0.00 0.00 0.00 51 1006.7
20260506111847 18 90 0.0 4.8 0.00 0.00 0.00 50 1006.7
20260506110346 18 90 0.0 0.0 0.00 0.00 0.00 50 1006.6
20260506104846 18 90 0.0 0.0 0.00 0.00 0.00 47 1006.6
20260506103346 18 90 0.0 1.6 0.00 0.00 0.00 45 1006.5
20260506101848 19 90 0.0 1.6 0.00 0.00 0.00 44 1006.8
20260506100348 19 90 0.0 1.6 0.00 0.00 0.00 42 1006.7
20260506094848 20 90 0.0 1.6 0.00 0.00 0.00 41 1006.3
20260506093347 21 83 0.0 3.2 0.00 0.00 0.00 40 1006.7